Regional Weather Roundup
Issued by NWS

Home | Current Version | Previous Version | Graphics & Text | Print | Product List | Glossary On
Versions: 1 2 3 4 5 6 7 8 9 10 11 12 13 14 15 16 17 18 19 20 21 22 23 24 25 26 27 28 29 30 31 32 33 34 35 36 37 38 39 40 41 42 43 44 45 46 47 48 49 50
000
ASUS43 KIND 221009
RWRIN

WEATHER ROUNDUP FOR INDIANA
NATIONAL WEATHER SERVICE INDIANAPOLIS IN
500 AM EST THU FEB 22 2018

NOTE: "FAIR" INDICATES FEW OR NO CLOUDS BELOW 12,000 FEET WITH NO
SIGNIFICANT WEATHER AND/OR OBSTRUCTIONS TO VISIBILITY.

* - STATION DOES NOT REPORT WEATHER SUCH AS PRECIPITATION OR FOG.

+ - STATION NOT QUALITY CONTROLLED BY THE NATIONAL WEATHER SERVICE.
    USE DATA WITH CAUTION...ESPECIALLY DEWPOINT AND RELATIVE
    HUMIDITY OBSERVATIONS.

INZ001>003-010>013-019-020-221100-
NORTHWEST INDIANA

CITY           SKY/WX    TMP DP  RH WIND       PRES   REMARKS
GARY /AIRPORT/ FAIR      33  28  83 NE15      30.52F WCI  23
LA PORTE +     CLOUDY    31  28  89 NE8       30.51S WCI  24
MICHIGAN CITY+ CLOUDY    30  28  93 NE3       30.53S
MONTICELLO +   CLOUDY    36  33  89 E10       30.45R WCI  28
RENSSELAER +   CLOUDY    32  30  93 N14       30.47R WCI  22
VALPARAISO     CLOUDY    33  28  81 N9        30.51R WCI  25

$$

LMZ046-743>745-221100-
SOUTHERN LAKE MICHIGAN

STATION/POSITION TIME  TEMP    WIND        PRES    WAVE
                       AIR SEA DIR/SP/G            HT
                 (UTC) (F)     (DEG/KT/KT) (MB)    (FT)
BURNS HARBOR     0940   31      50/ 17/ 19 1033.9F
MICHIGAN CITY    0940   31      30/ 18/ 20   N/A

$$

INZ004-005-014>016-021>024-221100-
NORTH CENTRAL INDIANA

CITY           SKY/WX    TMP DP  RH WIND       PRES   REMARKS
GOSHEN         CLOUDY    34  31  88 E10       30.49F WCI  26
LOGANSPORT +   CLOUDY    34  32  93 E14G20    30.43F WCI  24
PERU/GRISSOM   MOCLDY    34  34 100 E21       30.43F WCI  22
ROCHESTER +    FAIR      37  32  81 E13G22    30.46F WCI  29
SOUTH BEND     CLOUDY    31  28  89 NE6       30.50F WCI  25
WARSAW +       MOCLDY    34  32  93 MISG      30.47F

$$

INZ006>009-017-018-025>027-221100-
NORTHEAST INDIANA

CITY           SKY/WX    TMP DP  RH WIND       PRES   REMARKS
AUBURN +       FLURRIES  32  30  93 E17       30.50F WCI  21
FORT WAYNE     FRZ RAIN  33  29  85 E20G29    30.48F WCI  21
HUNTINGTON +   DRIZZLE   33  32  98 E14G21    30.46F WCI  23
KENDALLVILLE + CLOUDY    32  30  91 E12G22    30.48F WCI  23

$$

INZ028-029-035-036-043>045-051>053-221100-
WEST CENTRAL INDIANA

CITY           SKY/WX    TMP DP  RH WIND       PRES   REMARKS
CRAWFORDSVL +  CLOUDY    35  35 100 NE13        N/A  WCI  27
GREENCASTLE +  CLOUDY    37  36  93 E13       30.35F WCI  29
LAFAYETTE      CLOUDY    36  35  96 NE15      30.43R WCI  27
TERRE HAUTE    CLOUDY    41  39  93 E14       30.32F

$$

INZ030>032-037>040-046>048-054>057-064-065-221100-
CENTRAL INDIANA

CITY           SKY/WX    TMP DP  RH WIND       PRES   REMARKS
FISHERS *+     CLOUDY    34  34 100 E9        30.39  WCI  26
GREENWOOD *+   CLOUDY   N/A N/A N/A E12G18    30.37F
INDIANAPOLIS   LGT RAIN  38  36  92 E15       30.36F WCI  29
-EAGLE CREEK   LGT RAIN  38  34  85 E10       30.37S WCI  31
KOKOMO +       LGT RAIN  34  32  92 E20       30.43F WCI  23
MARION +       CLOUDY    33  32  94 E17G24    30.44S WCI  22
MT COMFORT *+  CLOUDY    36  36 100 E14       30.39S WCI  27
SHELBYVILLE    LGT RAIN  40  36  86 E18       30.35F WCI  31
ZIONSVILLE +   RAIN      35  34  96 E15G21    30.38F WCI  25

$$

INZ033-034-041-042-049-050-058-059-221100-
EAST CENTRAL INDIANA

CITY           SKY/WX    TMP DP  RH WIND       PRES   REMARKS
MUNCIE         LGT RAIN  36  33  89 E15       30.42S WCI  27
RICHMOND +     LGT RAIN  36  36 100 E15G24    30.40S WCI  26

$$

INZ060-061-067>069-081>083-085>088-221100-
SOUTHWEST INDIANA

CITY           SKY/WX    TMP DP  RH WIND       PRES   REMARKS
EVANSVILLE     CLOUDY    42  42 100 E12       30.25F
HUNTINGBURG +  LGT RAIN  42  41  96 NE6       30.30F
WASHINGTON +   LGT RAIN  41  39  94 E14       30.29F

$$

INZ062-063-066-070>080-084-089>092-221100-
SOUTH CENTRAL AND SOUTHEAST INDIANA

CITY           SKY/WX    TMP DP  RH WIND       PRES   REMARKS
BATESVILLE +   CLOUDY    37  37 100 MISG      30.37F
BEDFORD +      LGT RAIN  39  37  93 E14G21    30.32F WCI  31
BLOOMINGTON    LGT RAIN  40  37  89 E15G22    30.32F WCI  32
FRENCH LICK *+ CLOUDY    41 N/A N/A NE16      30.31F
MADISON *+     CLOUDY    39  37  93 NE10G20   30.36R WCI  32
NORTH VERNON + LGT RAIN  37  36  93 NE15G21   30.35F WCI  28
SEYMOUR +      LGT RAIN  41  37  87 NE10      30.35F

$$




USA.gov is the U.S. government's official web portal to all federal, state and local government web resources and services.